Regional Weather Roundup
Issued by NWS Sioux Falls, SD

Home | Current Version | Previous Version | Text Only | Print | Product List | Glossary On
Versions: 1 2 3 4 5 6 7 8 9 10 11 12 13 14 15 16 17 18 19 20 21 22 23 24 25 26 27 28 29 30 31 32 33 34 35 36 37 38 39 40 41 42 43 44 45 46 47 48 49 50
000
ASUS43 KFSD 300802
RWRFSD

WEATHER ROUNDUP FOR SE SOUTH DAKOTA/SW MINNESOTA/NW IOWA
NATIONAL WEATHER SERVICE SIOUX FALLS SD
300 AM CDT SAT MAY 30 2015

NOTE: "FAIR" INDICATES FEW OR NO CLOUDS BELOW 12,000 FEET WITH NO
SIGNIFICANT WEATHER AND OR OBSTRUCTIONS TO VISIBILITY.


SDZ038>040-050-052>070-300900-
SOUTHEAST SOUTH DAKOTA

CITY           SKY/WX    TMP DP  RH WIND       PRES   REMARKS
BROOKINGS      PTCLDY    43  36  75 N17       30.21R
CHAMBERLAIN    PTCLDY    43  39  86 N5        30.28S
HURON          PTCLDY    41  38  89 N8        30.26R
MADISON        FAIR      41  41 100 N18G24    30.19S
MITCHELL       PTCLDY    44  40  85 NW10      30.25R
SIOUX FALLS    PTCLDY    47  40  76 N14G22    30.18R
WINNER         FAIR      40  35  83 NW7       30.28S
YANKTON        CLOUDY    48  41  76 NW13      30.20R
$$

MNZ071-072-080-081-089-090-097-098-300900-
SOUTHWEST MINNESOTA

CITY           SKY/WX    TMP DP  RH WIND       PRES   REMARKS
FAIRMONT       CLOUDY    52  43  71 N17       30.08F
JACKSON        CLOUDY    50  46  87 N12G21    30.12R
LUVERNE        PTCLDY    48  41  76 N12G17    30.16R
MARSHALL       CLEAR     45  37  76 N15       30.18R
MONTEVIDEO     CLEAR     45  43  93 N13       30.20R
PIPESTONE      PTCLDY    45  39  81 NE14G22   30.16R
REDWOOD FALLS  CLEAR     48  44  86 N7        30.16R
TRACY          CLEAR     46  44  91 N14G20    30.17S
WINDOM         PTCLDY    48  45  87 N16G23    30.13S
WORTHINGTON    PTCLDY    48  39  71 N16G23    30.14R
$$

IAZ001>003-012>014-020>022-031-032-NEZ013-014-SDZ071-300900-
NORTHWEST IOWA

CITY           SKY/WX    TMP DP  RH WIND       PRES   REMARKS
DENISON        LGT RAIN  50  50 100 N12       30.07S
ESTHERVILLE    CLOUDY    51  46  83 N23G29    30.08S
SIOUX CITY     CLOUDY    52  44  74 N13       30.14S
SPENCER        CLOUDY    52  46  80 N20       30.09S
$$

ABBREVIATIONS USED IN REMARKS
   TC - TEMPERATURE IN CELSIUS
  WCI - WIND CHILL INDEX
   HX - HEAT INDEX
  VSB - VISIBILITY



USA.gov is the U.S. government's official web portal to all federal, state and local government web resources and services.